DESCA EDDH-EDXW

Flight info

Callsign DESCA
Flight time N/A
Altitude
Route
Aircraft

Departure

Time 2026-05-05 17:07
Airport Hamburg Helmut Schmidt Airport (EDDH)

Arrival

Time N/A
Airport Westerland Sylt Airport (EDXW)
Time Latitude Longitude Altitude Speed Heading
2026-05-05 16:58 53.62673 9.98757 42 ft 0 kts 63°
2026-05-05 16:59 53.62672 9.98757 42 ft 0 kts 63°
2026-05-05 16:59 53.62673 9.98757 42 ft 0 kts 63°
2026-05-05 17:01 53.62672 9.98757 42 ft 0 kts 63°
2026-05-05 17:01 53.62673 9.98757 42 ft 0 kts 63°
2026-05-05 17:01 53.62678 9.98738 42 ft 6 kts 246°
2026-05-05 17:02 53.62686 9.98669 42 ft 8 kts 323°
2026-05-05 17:02 53.62690 9.98664 42 ft 0 kts 329°
2026-05-05 17:02 53.62718 9.98643 42 ft 9 kts 353°
2026-05-05 17:02 53.62778 9.98729 42 ft 14 kts 51°
2026-05-05 17:03 53.62851 9.98879 42 ft 19 kts 50°
2026-05-05 17:03 53.62943 9.99065 42 ft 22 kts 50°
2026-05-05 17:03 53.63045 9.99261 42 ft 20 kts 36°
2026-05-05 17:03 53.63143 9.99317 42 ft 2 kts 13°
2026-05-05 17:06 53.63196 9.99341 42 ft 15 kts 15°
2026-05-05 17:06 53.63336 9.99338 41 ft 25 kts 336°
2026-05-05 17:06 53.63638 9.99100 57 ft 66 kts 337°
2026-05-05 17:07 53.64099 9.98677 184 ft 82 kts 333°
2026-05-05 17:07 53.64576 9.98111 372 ft 87 kts 326°
2026-05-05 17:07 53.64943 9.97367 620 ft 85 kts 290°
2026-05-05 17:07 53.65057 9.96344 800 ft 91 kts 285°
2026-05-05 17:08 53.65166 9.95312 1096 ft 86 kts 285°
2026-05-05 17:08 53.65294 9.94349 1412 ft 82 kts 285°
2026-05-05 17:08 53.65411 9.93399 1649 ft 83 kts 285°
2026-05-05 17:08 53.65516 9.92466 1900 ft 81 kts 283°
2026-05-05 17:09 53.65623 9.91528 2176 ft 81 kts 281°
2026-05-05 17:09 53.65702 9.90588 2429 ft 82 kts 279°
2026-05-05 17:09 53.65796 9.89615 2582 ft 85 kts 281°
2026-05-05 17:09 53.65928 9.88592 2608 ft 94 kts 283°
2026-05-05 17:10 53.66082 9.87428 2537 ft 106 kts 283°
2026-05-05 17:10 53.66247 9.86238 2560 ft 105 kts 284°
2026-05-05 17:10 53.66441 9.85047 2560 ft 105 kts 288°
2026-05-05 17:10 53.66657 9.83870 2568 ft 105 kts 287°
2026-05-05 17:11 53.66877 9.82683 2515 ft 106 kts 288°
2026-05-05 17:11 53.67096 9.81508 2513 ft 105 kts 289°
2026-05-05 17:11 53.67336 9.80328 2500 ft 107 kts 290°
2026-05-05 17:11 53.67583 9.79159 2508 ft 105 kts 289°
2026-05-05 17:12 53.67856 9.78011 2484 ft 104 kts 297°
2026-05-05 17:12 53.68250 9.77025 2568 ft 99 kts 308°
2026-05-05 17:12 53.68728 9.76209 2634 ft 97 kts 313°
2026-05-05 17:12 53.69181 9.75408 2722 ft 92 kts 310°
2026-05-05 17:13 53.69652 9.74635 2739 ft 97 kts 319°
2026-05-05 17:13 53.70241 9.74030 2738 ft 100 kts 325°
2026-05-05 17:13 53.70829 9.73406 2748 ft 102 kts 325°
2026-05-05 17:13 53.71494 9.72937 2741 ft 105 kts 338°
2026-05-05 17:14 53.72184 9.72538 2746 ft 105 kts 337°
2026-05-05 17:14 53.72883 9.72127 2704 ft 109 kts 338°
2026-05-05 17:14 53.73625 9.71750 2657 ft 113 kts 340°
2026-05-05 17:14 53.74385 9.71374 2599 ft 114 kts 340°
2026-05-05 17:15 53.75141 9.70995 2555 ft 113 kts 340°
2026-05-05 17:15 53.75894 9.70618 2505 ft 113 kts 340°
2026-05-05 17:15 53.76635 9.70238 2501 ft 110 kts 339°
2026-05-05 17:15 53.77363 9.69870 2499 ft 108 kts 340°
2026-05-05 17:16 53.78014 9.69309 2495 ft 104 kts 317°
2026-05-05 17:16 53.78580 9.68553 2493 ft 103 kts 321°
2026-05-05 17:16 53.79161 9.67849 2494 ft 102 kts 323°
2026-05-05 17:16 53.79812 9.67377 2495 ft 104 kts 338°
2026-05-05 17:17 53.80487 9.66934 2499 ft 105 kts 336°
2026-05-05 17:17 53.81174 9.66484 2497 ft 106 kts 335°
2026-05-05 17:17 53.81861 9.66033 2497 ft 106 kts 335°
2026-05-05 17:17 53.82555 9.65577 2496 ft 109 kts 336°
2026-05-05 17:18 53.83272 9.65096 2501 ft 112 kts 336°
2026-05-05 17:18 53.83993 9.64613 2496 ft 110 kts 336°
2026-05-05 17:18 53.84701 9.64139 2495 ft 109 kts 336°
2026-05-05 17:18 53.85407 9.63661 2497 ft 109 kts 335°
2026-05-05 17:19 53.86114 9.63179 2499 ft 110 kts 336°
2026-05-05 17:19 53.86817 9.62697 2502 ft 108 kts 335°
2026-05-05 17:19 53.87498 9.62156 2501 ft 108 kts 332°
2026-05-05 17:19 53.88167 9.61600 2497 ft 109 kts 332°
2026-05-05 17:20 53.88845 9.61030 2501 ft 109 kts 332°
2026-05-05 17:20 53.89530 9.60448 2499 ft 111 kts 332°
2026-05-05 17:20 53.90220 9.59866 2495 ft 111 kts 330°
2026-05-05 17:20 53.90903 9.59271 2498 ft 110 kts 330°
2026-05-05 17:21 53.91578 9.58679 2495 ft 108 kts 330°
2026-05-05 17:21 53.92243 9.58082 2500 ft 109 kts 330°
2026-05-05 17:21 53.92914 9.57460 2497 ft 113 kts 329°
2026-05-05 17:22 53.94261 9.56144 2498 ft 111 kts 329°
2026-05-05 17:22 53.94931 9.55490 2499 ft 112 kts 329°
2026-05-05 17:22 53.95604 9.54846 2492 ft 113 kts 329°
2026-05-05 17:22 53.96295 9.54167 2495 ft 116 kts 329°
2026-05-05 17:23 53.96979 9.53492 2494 ft 112 kts 328°
2026-05-05 17:23 53.97643 9.52843 2504 ft 109 kts 329°
2026-05-05 17:23 53.98308 9.52194 2715 ft 105 kts 328°
2026-05-05 17:23 53.98922 9.51609 2978 ft 101 kts 328°
2026-05-05 17:24 53.99540 9.51036 3175 ft 101 kts 328°
2026-05-05 17:24 54.00153 9.50490 3382 ft 99 kts 329°
2026-05-05 17:24 54.00768 9.49950 3535 ft 100 kts 328°
2026-05-05 17:24 54.01389 9.49410 3705 ft 101 kts 329°
2026-05-05 17:25 54.02016 9.48871 3893 ft 101 kts 329°
2026-05-05 17:25 54.02432 9.48512 4014 ft 102 kts 329°
2026-05-05 17:25 54.03278 9.47780 4258 ft 102 kts 329°
2026-05-05 17:25 54.03914 9.47232 4453 ft 103 kts 328°
2026-05-05 17:26 54.04590 9.46646 4490 ft 115 kts 329°
2026-05-05 17:26 54.05304 9.46014 4497 ft 117 kts 329°
2026-05-05 17:26 54.06019 9.45382 4490 ft 114 kts 329°
2026-05-05 17:26 54.06706 9.44777 4489 ft 109 kts 329°
2026-05-05 17:27 54.07368 9.44190 4488 ft 106 kts 328°
2026-05-05 17:27 54.08020 9.43609 4485 ft 105 kts 329°
2026-05-05 17:27 54.08665 9.43035 4486 ft 104 kts 329°
2026-05-05 17:27 54.09304 9.42469 4487 ft 103 kts 329°
2026-05-05 17:28 54.09935 9.41903 4488 ft 103 kts 328°
2026-05-05 17:28 54.10577 9.41331 4489 ft 106 kts 328°
2026-05-05 17:28 54.11220 9.40756 4492 ft 105 kts 329°
2026-05-05 17:28 54.11870 9.40172 4493 ft 106 kts 328°
2026-05-05 17:29 54.12523 9.39587 4493 ft 106 kts 329°
2026-05-05 17:29 54.13176 9.38995 4496 ft 107 kts 329°
2026-05-05 17:29 54.13828 9.38392 4496 ft 106 kts 329°
2026-05-05 17:29 54.14479 9.37785 4497 ft 107 kts 328°
2026-05-05 17:30 54.15136 9.37181 4500 ft 107 kts 328°
2026-05-05 17:30 54.15789 9.36576 4495 ft 106 kts 329°
2026-05-05 17:30 54.16441 9.35969 4497 ft 107 kts 328°
2026-05-05 17:30 54.17089 9.35363 4508 ft 107 kts 328°
2026-05-05 17:31 54.17746 9.34749 4496 ft 107 kts 328°
2026-05-05 17:31 54.18394 9.34142 4495 ft 106 kts 329°
2026-05-05 17:31 54.19045 9.33531 4496 ft 108 kts 329°
2026-05-05 17:31 54.19690 9.32928 4497 ft 106 kts 329°
2026-05-05 17:32 54.20335 9.32319 4499 ft 106 kts 329°
2026-05-05 17:32 54.20976 9.31707 4501 ft 105 kts 328°
2026-05-05 17:32 54.21616 9.31099 4500 ft 105 kts 329°
2026-05-05 17:32 54.22254 9.30496 4499 ft 104 kts 329°
2026-05-05 17:33 54.22884 9.29898 4498 ft 103 kts 329°
2026-05-05 17:33 54.23515 9.29289 4500 ft 105 kts 329°
2026-05-05 17:33 54.24149 9.28675 4501 ft 105 kts 329°
2026-05-05 17:33 54.24786 9.28057 4501 ft 105 kts 329°
2026-05-05 17:34 54.25423 9.27435 4502 ft 105 kts 329°
2026-05-05 17:34 54.26059 9.26807 4476 ft 107 kts 328°
2026-05-05 17:34 54.26697 9.26178 4422 ft 108 kts 328°
2026-05-05 17:34 54.27349 9.25537 4372 ft 108 kts 329°
2026-05-05 17:35 54.28007 9.24895 4326 ft 110 kts 329°
2026-05-05 17:35 54.28672 9.24240 4275 ft 111 kts 329°
2026-05-05 17:35 54.29341 9.23584 4222 ft 111 kts 329°
2026-05-05 17:35 54.30009 9.22914 4171 ft 112 kts 329°
2026-05-05 17:36 54.30680 9.22232 4121 ft 112 kts 328°
2026-05-05 17:36 54.31353 9.21545 4073 ft 113 kts 329°
2026-05-05 17:36 54.32025 9.20853 4020 ft 113 kts 329°
2026-05-05 17:36 54.32696 9.20159 3978 ft 112 kts 328°
2026-05-05 17:37 54.33362 9.19496 3978 ft 109 kts 339°
2026-05-05 17:37 54.33854 9.19361 3974 ft 108 kts 354°
2026-05-05 17:37 54.34845 9.19145 3871 ft 110 kts 350°
2026-05-05 17:37 54.35583 9.18933 3741 ft 104 kts 349°
2026-05-05 17:38 54.36189 9.18743 3625 ft 103 kts 349°
2026-05-05 17:38 54.36893 9.18518 3471 ft 103 kts 349°
2026-05-05 17:38 54.37597 9.18289 3319 ft 103 kts 349°
2026-05-05 17:38 54.38312 9.18052 3119 ft 105 kts 350°
2026-05-05 17:39 54.39032 9.17818 2907 ft 105 kts 350°
2026-05-05 17:39 54.39751 9.17579 2707 ft 106 kts 350°
2026-05-05 17:39 54.40468 9.17343 2506 ft 106 kts 350°
2026-05-05 17:39 54.41195 9.17100 2298 ft 107 kts 350°
2026-05-05 17:40 54.41925 9.16858 2094 ft 107 kts 351°
2026-05-05 17:40 54.42666 9.16612 1860 ft 110 kts 351°
2026-05-05 17:40 54.43423 9.16362 1604 ft 111 kts 351°
2026-05-05 17:40 54.44189 9.16108 1342 ft 112 kts 351°
2026-05-05 17:41 54.44950 9.15853 1089 ft 111 kts 351°
2026-05-05 17:41 54.45695 9.15606 969 ft 104 kts 350°
2026-05-05 17:41 54.46393 9.15368 977 ft 102 kts 351°
2026-05-05 17:41 54.47092 9.15152 943 ft 102 kts 355°
2026-05-05 17:42 54.47785 9.15227 956 ft 98 kts 13°
2026-05-05 17:42 54.48435 9.15523 986 ft 96 kts 16°
2026-05-05 17:42 54.49074 9.15842 968 ft 96 kts 17°
2026-05-05 17:42 54.49706 9.16185 941 ft 97 kts 17°
2026-05-05 17:43 54.50379 9.16335 859 ft 98 kts 354°
2026-05-05 17:43 54.50996 9.15900 852 ft 95 kts 329°
2026-05-05 17:43 54.51507 9.15201 851 ft 93 kts 320°
2026-05-05 17:43 54.51942 9.14455 841 ft 86 kts 316°
2026-05-05 17:44 54.52318 9.13675 863 ft 82 kts 307°
2026-05-05 17:44 54.52395 9.12756 887 ft 80 kts 255°
2026-05-05 17:44 54.52041 9.12036 850 ft 81 kts 207°
2026-05-05 17:44 54.51531 9.11641 837 ft 81 kts 205°
2026-05-05 17:45 54.51004 9.11221 884 ft 87 kts 207°
2026-05-05 17:45 54.50484 9.10627 910 ft 92 kts 220°
2026-05-05 17:45 54.50014 9.09974 939 ft 85 kts 219°
2026-05-05 17:45 54.49530 9.09425 886 ft 83 kts 195°
2026-05-05 17:46 54.49008 9.09685 835 ft 81 kts 128°
2026-05-05 17:46 54.48963 9.10553 740 ft 75 kts 70°
2026-05-05 17:46 54.49137 9.11412 628 ft 79 kts 60°
2026-05-05 17:46 54.49502 9.12093 487 ft 78 kts 39°
2026-05-05 17:47 54.49946 9.12626 351 ft 78 kts 35°
2026-05-05 17:47 54.50387 9.13122 252 ft 73 kts 35°
2026-05-05 17:47 54.50806 9.13604 180 ft 73 kts 36°
2026-05-05 17:47 54.51229 9.14090 117 ft 73 kts 36°
2026-05-05 17:48 54.51504 9.14403 79 ft 65 kts 36°
2026-05-05 17:48 54.51803 9.14750 65 ft 41 kts 34°
2026-05-05 17:48 54.51999 9.14966 66 ft 16 kts 30°
2026-05-05 17:48 54.52009 9.14977 63 ft 0 kts 36°